{"data":{"norad_id":59236,"intl_designator":"2024-049F","name":"STARLINK-31444","alt_names":[],"object_type":"PAYLOAD","status":"ACTIVE","operator":null,"country":"US","launch_date":"2024-03-16","launch_site_code":"AFETR","launch_vehicle":null,"mission":null,"orbit_class":"UNKNOWN","rcs_meters":null,"size_class":null,"mass_kg":null,"dimensions":null,"purposes":["comms"],"wikipedia_slug":null,"has_3d_model":false,"image_url":null,"decayed_at":null,"tle_current":{"epoch":"2026-05-25T04:00:03.998880Z","epoch_age_seconds":63851,"freshness":"FRESH","line1":"1 59236U 24049F   26145.16671295  .00036890  00000+0  11412-2 0  9995","line2":"2 59236  43.0005 359.1927 0002013 274.4384 137.1885 15.32854418  5912","mean_motion":15.32854418,"eccentricity":0.0002013,"inclination_deg":43.0005,"raan_deg":359.1927,"arg_perigee_deg":274.4384,"mean_anomaly_deg":137.1885,"bstar":0.0011412,"rev_number":591,"period_min":93.942385075215,"perigee_km":465.92290849597,"apogee_km":468.67888179255,"semimajor_km":6845.4378951443,"source":"CELESTRAK","updated_at":"2026-05-25T13:38:18.869972Z"}}}